Regional Weather Roundup
Issued by NWS Boston, MA

Home | Current Version | Previous Version | Text Only | Print | Product List | Glossary On
Versions: 1 2 3 4 5 6 7 8 9 10 11 12 13 14 15 16 17 18 19 20 21 22 23 24 25 26 27 28 29 30 31 32 33 34 35 36 37 38 39 40 41 42 43 44 45 46 47
000
ASUS41 KBOX 280510
RWRBOX

REGIONAL WEATHER ROUNDUP
NATIONAL WEATHER SERVICE TAUNTON MA
100 AM EDT SAT MAR 28 2015

NOTE:  "FAIR" INDICATES FEW OR NO CLOUDS BELOW 12,000 FEET WITH NO
SIGNIFICANT WEATHER AND/OR OBSTRUCTIONS TO VISIBILITY.  THE FOLLOWING
OBSERVATION LOCATIONS DO NOT REPORT PRESENT WEATHER...PROVINCETOWN...
SMITHFIELD...BLOCK ISLAND...KEENE...AND OXFORD.

MAZALL-280600-
EASTERN MASSACHUSETTS

CITY           SKY/WX    TMP DP  RH WIND       PRES   REMARKS
BOSTON         CLOUDY    40  36  86 NW6       29.76S
BEVERLY        CLOUDY    35  32  88 NW3       29.74F FOG
LAWRENCE       CLOUDY    37  33  85 NW5       29.77F
BEDFORD        CLOUDY    32  32 100 NW5       29.75F WCI  27
BLUE HILL        N/A     36  35  96 NW8       29.72S WCI  30
NORWOOD        FOG       35  34  96 CALM      29.75S VSB 3/4
MARSHFIELD     CLOUDY    37  36  93 CALM      29.76F
PLYMOUTH       CLOUDY    36  35  96 CALM      29.74S
TAUNTON        FOG       36  35  96 CALM      29.75R VSB 1/2
NEW BEDFORD    CLOUDY    37  37 100 CALM      29.74S FOG
$$

MAZALL-280600-
CAPE COD AND THE ISLANDS

CITY           SKY/WX    TMP DP  RH WIND       PRES   REMARKS
FALMOUTH       CLOUDY    37  34  87 CALM      29.75R
HYANNIS        CLOUDY    37  35  92 N3        29.72F
CHATHAM        CLOUDY    37  36  96 CALM      29.74F
PROVINCETOWN   CLOUDY    37  34  87 N6        29.74F
NANTUCKET      CLOUDY    38  36  92 N7        29.73S
MARTHAS VNYRD  LGT RAIN  37  32  82 N5        29.75S
$$

MAZALL-280600-
CENTRAL AND WESTERN MASSACHUSETTS

CITY           SKY/WX    TMP DP  RH WIND       PRES   REMARKS
WORCESTER      CLOUDY    37  27  67 N9        29.72F WCI  30
FITCHBURG      CLOUDY    36  30  79 N5        29.76S
ORANGE         CLOUDY    34  29  82 N6        29.76F WCI  29
SPRINGFIELD    CLOUDY    36  29  76 NW5       29.76F WCI  32
WESTFIELD      CLOUDY    37  27  67 N6        29.77F
NORTH ADAMS    CLOUDY    32  27  81 NW5       29.81R WCI  27
PITTSFIELD     CLOUDY    31  26  82 W8        29.77R WCI  23
$$

RIZALL-280600-
RHODE ISLAND

CITY           SKY/WX    TMP DP  RH WIND       PRES   REMARKS
PROVIDENCE     CLOUDY    39  37  92 CALM      29.75S FOG
NEWPORT        CLOUDY    38  36  92 CALM      29.74S FOG
BLOCK ISLAND   CLOUDY    39  36  87 CALM      29.74F
SMITHFIELD     CLOUDY    37  32  81 N5        29.73S
WESTERLY       CLOUDY    39  37  92 CALM      29.75R
$$

CTZALL-280600-
CONNECTICUT

CITY           SKY/WX    TMP DP  RH WIND       PRES   REMARKS
BRADLEY INTL   CLOUDY    38  27  64 NW9       29.78R WCI  31
HARTFORD       CLOUDY    39  27  62 VRB6      29.79R
BRIDGEPORT     CLOUDY    40  27  59 N10       29.78R
DANBURY        CLOUDY    36  21  54 N6        29.80R WCI  31
GROTON         CLOUDY    41  33  73 N8        29.75S
NEW HAVEN      CLOUDY    39  26  59 NW8       29.77R
CHESTER        CLOUDY    37  30  75 N12G18    29.76R WCI  30
MERIDEN        CLOUDY    38  26  62 N6        29.79R
WILLIMANTIC    CLOUDY    35  31  85 W3        29.77R
OXFORD         CLOUDY    36  19  51 N10       29.78S WCI  28
$$

MEZ002-015-021-024-NHZ003-005-008-011-012-014-VTZ005-008-280600-
NORTHERN NEW ENGLAND

CITY           SKY/WX    TMP DP  RH WIND       PRES   REMARKS
PORTLAND ME    CLOUDY    39  30  70 N6        29.77R
BANGOR ME      PTCLDY    32  23  69 N7        29.77S WCI  26
CONCORD NH     CLOUDY    36  29  75 NW5       29.78R
MANCHESTER NH  CLOUDY    37  32  82 N6        29.76R
NASHUA NH      CLOUDY    36  32  85 CALM      29.77S
PORTSMOUTH NH  CLOUDY    35  33  90 NW3       29.75S
JAFFREY NH     CLOUDY    32  29  88 N3        29.75R
KEENE NH       CLOUDY    32  30  93 CALM      29.78S
BURLINGTON VT  FLURRIES  28  21  75 N10       29.90R WCI  19
MT. WASHINGTON NOT AVBL
$$

NYZ052-076-280600-
EASTERN NEW YORK

CITY           SKY/WX    TMP DP  RH WIND       PRES   REMARKS
ALBANY         FLURRIES  32  26  78 NW6       29.87R WCI  26
NEW YORK CITY  CLOUDY    41  25  53 N12G20    29.77F
$$

ANZALL-280600-
MARINE OBSERVATIONS

STATION/POSITION TIME  TEMP    WIND        PRES    VSBY  WAVE
                       AIR SEA DIR/SP/G                  HT/PER
                 (UTC) (F)     (DEG/KT/KT) (MB)    (MI)  (FT/S)
BOSTON BUOY      0450   37 37  360/  2/  2 1007.6F         3/11
BUZZARDS BAY     0400          360/  6/  6 1007.5F
NANTUCKET SOUND  0450   37 36  350/  6/  6 1007.1F         1/11
MASS BAY-STELLWA 0404   36 37  180/  2/  4   N/A    1 7/8  4/11
ISLE OF SHOALS   0400   39     300/  7/  7 1007.1R
S OF BLOCK IS    0408      38                N/A           8/11
$$

......................KEY.........................
  SKY/WX - SKY CONDITION/PRESENT WEATHER
  TMP    - TEMPERATURE IN FAHRENHEIT
  DWPT   - DEWPOINT IN FAHRENHEIT
  RH     - RELATIVE HUMIDITY IN PERCENT
  WIND   - DIRECTION AND SPEED IN MPH
  PRES   - MEAN SEA LEVEL PRESSURE IN INCHES OF HG
  WCI    - WIND CHILL INDEX
  VSB    - VISIBILITY IN MILES
  HX     - HEAT INDEX
  TC     - TEMPERATURE IN CELSIUS
  VRB    - VARIABLE WIND DIRECTION
  N/A    - NOT AVAILABLE


USA.gov is the U.S. government's official web portal to all federal, state and local government web resources and services.